Rotterdam, Netherlands

10:38 AM CET on February 21, 2018 (GMT +0100)
Rotterdam

Weather History for EHRD - March, 2014

Change the Weather History Date:

Sunday, March 23, 2014

  Actual Average Record
Temperature  
Mean Temperature 43 °F -  
Max Temperature 49 °F 53 °F 64 °F (2012)
Min Temperature 37 °F 39 °F 24 °F (2006)
Degree Days  
Heating Degree Days 22    
Moisture  
Dew Point 38 °F    
Average Humidity 81    
Maximum Humidity 100    
Minimum Humidity 51    
Precipitation  
Precipitation 0.08 in - - ()
Sea Level Pressure  
Sea Level Pressure 29.68 in    
Wind  
Wind Speed 10 mph ()    
Max Wind Speed 16 mph    
Max Gust Speed -    
Visibility 8.5 miles    
Events Rain    
Averages and records for this station are not official NWS values.
T = Trace of Precipitation, MM = Missing Value Source: Averaged Metar Reports

Daily Weather History Graph

Daily Weather History Graph

Search for Another Location

Airport or City:

Trip Planner

Search our weather history database for the weather conditions in past years. The results will help you decide how hot, cold, wet, or windy it might be!

Date:

Astronomy

Mar. 23, 2014 Rise Set
Actual Time 6:38 AM CET 7:00 PM CET
Civil Twilight 6:04 AM CET 7:34 PM CET
Nautical Twilight 5:24 AM CET 8:14 PM CET
Astronomical Twilight 4:42 AM CET 8:56 PM CET
Moon 1:38 AM CET (3/23) 10:27 AM CET (3/23)
Length of Visible Light 13h 29m
Length of Day
12h 21m
Waning Gibbous, 57% of the Moon is Illuminated
Mar 23
Waning Gibbous
Mar 24
Last Quarter
Mar 30
New
Apr 7
First Quarter
Apr 15
Full

Hourly Weather History & Observations

Time (CET) Temp. Windchill Dew Point Humidity Pressure Visibility Wind Dir Wind Speed Gust Speed Precip Events Conditions
12:00 AM 42 °F - 37 °F 76% 29.60 in 28 mi SW 13.4 mph - -   Partly Cloudy
12:25 AM 42.8 °F 36.6 °F 37.4 °F 81% 29.59 in 6.2 mi SSW 11.5 mph - N/A   Mostly Cloudy
12:55 AM 41.0 °F 34.3 °F 37.4 °F 87% 29.59 in 6.2 mi SSW 11.5 mph - N/A   Unknown
1:00 AM 41 °F - 37 °F 82% 29.60 in 19 mi SSW 13.4 mph - -   Partly Cloudy
1:25 AM 41.0 °F 34.3 °F 37.4 °F 87% 29.59 in 6.2 mi SSW 11.5 mph - N/A   Mostly Cloudy
1:55 AM 42.8 °F 36.6 °F 39.2 °F 87% 29.59 in 6.2 mi South 11.5 mph - N/A   Mostly Cloudy
2:00 AM 42 °F - 38 °F 83% 29.60 in 12 mi SSW 11.2 mph - -   Overcast
2:25 AM 41.0 °F 34.7 °F 39.2 °F 93% 29.59 in 6.2 mi South 10.4 mph - N/A   Overcast
2:55 AM 41.0 °F 34.7 °F 37.4 °F 87% 29.59 in 6.2 mi South 10.4 mph - N/A   Scattered Clouds
3:00 AM 41 °F - 38 °F 85% 29.59 in 11 mi South 11.2 mph - -   Scattered Clouds
3:25 AM 41.0 °F 34.3 °F 37.4 °F 87% 29.56 in 6.2 mi SSW 11.5 mph - N/A   Unknown
3:55 AM 39.2 °F 32.0 °F 37.4 °F 93% 29.56 in 6.2 mi SSW 11.5 mph - N/A   Unknown
4:00 AM 40 °F - 38 °F 88% 29.59 in 11 mi SSW 13.4 mph - -  
4:25 AM 41.0 °F 35.2 °F 37.4 °F 87% 29.56 in 6.2 mi SSW 9.2 mph - N/A   Unknown
4:55 AM 39.2 °F 33.0 °F 37.4 °F 93% 29.56 in 6.2 mi SSW 9.2 mph - N/A   Unknown
5:00 AM 40 °F - 38 °F 88% 29.59 in 11 mi SSW 8.9 mph - -  
5:25 AM 39.2 °F 33.6 °F 37.4 °F 93% 29.56 in 6.2 mi SSW 8.1 mph - N/A   Unknown
5:55 AM 41.0 °F 35.2 °F 37.4 °F 87% 29.59 in 6.2 mi SSW 9.2 mph - N/A   Mostly Cloudy
6:00 AM 40 °F - 37 °F 86% 29.60 in 14 mi SSW 8.9 mph - -   Scattered Clouds
6:25 AM 41.0 °F 34.3 °F 37.4 °F 87% 29.59 in 6.2 mi SSW 11.5 mph - N/A   Mostly Cloudy
6:55 AM 41.0 °F 33.9 °F 37.4 °F 87% 29.59 in 6.2 mi SW 12.7 mph - N/A   Scattered Clouds
7:00 AM 42 °F - 38 °F 79% 29.62 in 22 mi SW 15.7 mph - -   Partly Cloudy
7:25 AM 41.0 °F 32.8 °F 37.4 °F 87% 29.62 in 6.2 mi WSW 16.1 mph - N/A Rain Light Rain
7:55 AM 41.0 °F 34.3 °F 39.2 °F 93% 29.62 in 6.2 mi SSW 11.5 mph - N/A Rain Light Rain
8:00 AM 42 °F - 39 °F 86% 29.63 in 14 mi SSW 11.2 mph - - Rain Light Rain
8:25 AM 42.8 °F 36.2 °F 39.2 °F 87% 29.62 in 6.2 mi SSW 12.7 mph - N/A Rain Light Rain
8:55 AM 41.0 °F 35.8 °F 39.2 °F 93% 29.62 in 6.2 mi South 8.1 mph - N/A   Mostly Cloudy
9:00 AM 42 °F - 39 °F 86% 29.65 in 17 mi South 6.7 mph - - Rain Rain
9:25 AM 42.8 °F 38.6 °F 41.0 °F 93% 29.62 in 6.2 mi South 6.9 mph - N/A   Scattered Clouds
9:55 AM 42.8 °F 36.2 °F 41.0 °F 93% 29.65 in 6.2 mi SW 12.7 mph - N/A   Partly Cloudy
10:00 AM 41 °F - 39 °F 89% 29.67 in 4 mi SW 15.7 mph - - Rain Rain Showers
10:25 AM 41.0 °F 35.2 °F 39.2 °F 93% 29.65 in 6.2 mi SSW 9.2 mph - N/A Rain Light Rain Showers
10:55 AM 44.6 °F 40.2 °F 41.0 °F 87% 29.65 in 6.2 mi SW 8.1 mph - N/A   Mostly Cloudy
11:00 AM 44 °F - 40 °F 82% 29.68 in 16 mi SSW 11.2 mph - - Rain Rain
11:25 AM 44.6 °F 38.8 °F 41.0 °F 87% 29.68 in 6.2 mi SSW 11.5 mph - N/A   Partly Cloudy
11:55 AM 46.4 °F 40.7 °F 42.8 °F 87% 29.68 in 6.2 mi SW 12.7 mph - N/A   Scattered Clouds
12:00 PM 46 °F - 41 °F 75% 29.68 in 11 mi SW 11.2 mph - -   Partly Cloudy
12:25 PM 46.4 °F 41.1 °F 39.2 °F 76% 29.68 in 6.2 mi West 11.5 mph - N/A   Partly Cloudy
12:55 PM 48.2 °F - 39.2 °F 71% 29.68 in 6.2 mi West 12.7 mph - N/A   Mostly Cloudy
1:00 PM 49 °F - 39 °F 60% 29.69 in 14 mi West 13.4 mph - -   Partly Cloudy
1:25 PM 48.2 °F - 37.4 °F 66% 29.68 in 6.2 mi West 13.8 mph - N/A   Mostly Cloudy
1:55 PM 48.2 °F - 35.6 °F 62% 29.68 in 6.2 mi West 13.8 mph - N/A   Scattered Clouds
2:00 PM 49 °F - 36 °F 51% 29.70 in 16 mi West 13.4 mph - -   Scattered Clouds
2:25 PM 50.0 °F - 37.4 °F 62% 29.68 in 6.2 mi West 11.5 mph - N/A   Mostly Cloudy
2:55 PM 46.4 °F 41.1 °F 37.4 °F 71% 29.71 in 6.2 mi West 11.5 mph - N/A   Mostly Cloudy
3:00 PM 46 °F - 35 °F 55% 29.71 in 13 mi West 11.2 mph - -   Scattered Clouds
3:25 PM 46.4 °F 41.5 °F 37.4 °F 71% 29.71 in 6.2 mi West 10.4 mph - N/A   Unknown
3:55 PM 48.2 °F - 35.6 °F 62% 29.71 in 6.2 mi West 11.5 mph - N/A   Mostly Cloudy
4:00 PM 47 °F - 35 °F 52% 29.73 in 9 mi West 11.2 mph - -   Scattered Clouds
4:25 PM 46.4 °F 41.9 °F 35.6 °F 66% 29.71 in 6.2 mi West 9.2 mph - N/A   Partly Cloudy
4:55 PM 46.4 °F 41.5 °F 33.8 °F 62% 29.71 in 6.2 mi West 10.4 mph - N/A   Unknown
5:00 PM 47 °F - 35 °F 52% 29.73 in 15 mi West 8.9 mph - -  
5:25 PM 48.2 °F - 35.6 °F 62% 29.71 in 6.2 mi West 9.2 mph - N/A   Partly Cloudy
5:55 PM 44.6 °F 40.7 °F 35.6 °F 71% 29.74 in 6.2 mi West 6.9 mph - N/A   Unknown
6:00 PM 44 °F - 35 °F 62% 29.75 in 12 mi West 6.7 mph - -   Scattered Clouds
6:25 PM 42.8 °F 39.3 °F 35.6 °F 76% 29.74 in 6.2 mi West 5.8 mph - N/A   Unknown
6:55 PM 42.8 °F 38.0 °F 33.8 °F 70% 29.74 in 6.2 mi West 8.1 mph - N/A   Unknown
7:00 PM 42 °F - 35 °F 67% 29.76 in 12 mi West 6.7 mph - -   Partly Cloudy
7:25 PM 41.0 °F 35.2 °F 37.4 °F 87% 29.77 in 6.2 mi West 9.2 mph - N/A   Mostly Cloudy
7:55 PM 41.0 °F 35.2 °F 37.4 °F 87% 29.77 in 6.2 mi WNW 9.2 mph - N/A Rain Light Rain
8:00 PM 41 °F - 37 °F 80% 29.79 in 18 mi WNW 6.7 mph - - Rain Light Drizzle
8:25 PM 39.2 °F 35.0 °F 37.4 °F 93% 29.77 in 6.2 mi WNW 5.8 mph - N/A Rain Light Rain
8:55 PM 39.2 °F 37.0 °F 35.6 °F 87% 29.77 in 6.2 mi West 3.5 mph - N/A   Partly Cloudy
9:00 PM 39 °F - 36 °F 87% 29.80 in 19 mi WSW 2.2 mph - - Rain Rain
9:25 PM 37.4 °F 34.9 °F 35.6 °F 93% 29.80 in 6.2 mi West 3.5 mph - N/A   Mostly Cloudy
9:55 PM 39.2 °F 33.6 °F 37.4 °F 93% 29.80 in 6.2 mi WNW 8.1 mph - N/A Rain Light Rain
10:00 PM 40 °F - 38 °F 91% 29.81 in 11 mi WNW 8.9 mph - - Rain Light Rain Showers
10:25 PM 39.2 °F 34.2 °F 37.4 °F 93% 29.80 in 6.2 mi WNW 6.9 mph - N/A Rain Light Rain
10:55 PM 39.2 °F 35.9 °F 37.4 °F 93% 29.80 in 6.2 mi WNW 4.6 mph - N/A Rain Light Rain
11:00 PM 38 °F - 36 °F 91% 29.83 in 18 mi WNW 4.5 mph - - Rain Rain
11:25 PM 37.4 °F 32.8 °F 37.4 °F 100% 29.83 in 6.2 mi WNW 5.8 mph - N/A   Overcast
11:55 PM 39.2 °F 35.9 °F 37.4 °F 93% 29.83 in 6.2 mi West 4.6 mph - N/A   Overcast